Regional Weather Roundup
Issued by NWS

Home | Current Version | Previous Version | Text Only | Print | Product List | Glossary On
Versions: 1 2 3 4 5 6 7 8 9 10 11 12 13 14 15 16 17 18 19 20 21 22 23 24 25 26 27 28 29 30 31 32 33 34 35 36 37 38 39 40 41 42 43 44 45 46 47 48 49 50
346
ASUS44 KEWX 201411
RWRTX
SOUTH TEXAS REGIONAL WEATHER ROUNDUP
NATIONAL WEATHER SERVICE AUSTIN/SAN ANTONIO TX
800 AM CST FRI JAN 20 2017

NOTE: "FAIR" INDICATED FEW OR NO CLOUDS BELOW 12,000 FEET WITH NO
SIGNIFICANT WEATHER AND/OR OBSTRUCTIONS TO VISIBILITY.

* - THESE STATIONS ARE NOT NWS OR FAA STATIONS...AND ARE NOT SUBJECT
    TO NWS AND FAA QUALITY CONTROL.

TXZ171-172-183>190-201500-
TEXAS HILL COUNTRY AND EDWARDS PLATEAU

CITY           SKY/WX    TMP DP  RH WIND       PRES   REMARKS
JUNCTION       PTCLDY    37  35  92 W3        29.80R
*LLANO         PTCLDY    39  37  93 CALM      29.81R
BURNET         PTCLDY    44  39  82 CALM      29.79R
*HORSESHOE BAY PTCLDY    47  42  82 CALM      29.78R
*KERRVILLE     CLOUDY    39  38  96 NW3       29.81S
*FREDERICKSBRG PTCLDY    42  37  83 CALM      29.81R
*ROCKSPRINGS   PTCLDY    50  36  57 CALM      29.83R
*BOERNE STAGE  CLOUDY    45  43  93 CALM      29.80S
*CASTROVILLE   CLOUDY    47  46  97 S5        29.81R WCI  45
HONDO          CLOUDY    47  43  86 NE5       29.78S WCI  45
*UVALDE        CLOUDY    48  44  84 CALM      29.79R
DEL RIO        CLOUDY    44  42  93 CALM      29.80R
LAUGHLIN AFB   PTCLDY    44  41  92 N10       29.79R FOG     WCI  38
CARRIZO SPRGS  CLOUDY    45  45 100 NW3       29.77R
*EAGLE PASS      N/A    N/A N/A N/A MISG        N/A
$$

TXZ173-191>194-202-209-217>225-228-201500-
CENTRAL AND SOUTH CENTRAL TEXAS

CITY           SKY/WX    TMP DP  RH WIND       PRES   REMARKS
GEORGETOWN     CLEAR     45  41  87 S3        29.78R
AUSTIN/BERGSTM FOG       56  55  97 S6        29.79R VSB 1/4
AUSTIN/MABRY   CLOUDY    49  47  93 CALM      29.80R FOG
*AUSTIN/EXEC     N/A    N/A N/A N/A MISG        N/A
*LAGO VISTA    PTCLDY    54  45  72 SW3       29.79R
SAN MARCOS     FOG       54  54 100 SW5       29.80R VSB 0
NEW BRAUNFELS  FOG       56  56 100 CALM      29.78R VSB 1/8
RANDOLPH AFB   FOG       55  55 100 SE3       29.79R VSB 0
PT SAN ANTONIO FOG       54  53  99 S6        29.77R VSB<1/4
SAN ANTONIO    FOG       53  52  96 CALM      29.79S VSB 1/16
STINSON FIELD  FOG       55  53  93 CALM      29.79R VSB<1/4
*PLEASANTON    FOG       57  57 100 SE6       29.80S VSB<1/4
*LA GRANGE     FOG       59  59  99 CALM      29.79R VSB 1
*GIDDINGS      FOG       56  56  99 SW3       29.81R VSB 3/4
*GONZALES      FOG       58  58 100 S5        29.80R VSB 1/4
$$

TXZ163>164-176>182-195>201-210>213-226-227-235-201500-
SOUTHEAST TEXAS

CITY           SKY/WX    TMP DP  RH WIND       PRES   REMARKS
COLLEGE STN    CLOUDY   N/A N/A N/A SW8       29.79R HAZE
*BRYAN         CLOUDY    58  58 100 S7        29.80R FOG
*CALDWELL      NOT AVBL
*CROCKETT        N/A     59  55  88 S12       29.79R FOG
*BRENHAM       FOG       59  59 100 SW3       29.81R VSB 3/4
HUNTSVILLE     CLOUDY    59  57  93 SW6       29.79R
CONROE         CLOUDY    60  58  92 SW6       29.80R
HOUSTON BUSH   CLOUDY    61  59  93 S8        29.80R FOG
HOUSTON HOBBY  FOG       59  59 100 SW12      29.82R VSB 1/2
*HOUSTON SW AP CLOUDY    58  58  99 W5        29.83R FOG
PEARLAND       FOG       59  57  93 W3        29.83R VSB 1/4
HOUSTON HOOKS  CLOUDY    60  58  92 S8        29.80R FOG
ELLINGTON FLD  FOG       59  59 100 SW2       29.82R VSB 1/4
SUGAR LAND     CLOUDY    61  60  97 SW9       29.82R FOG
*HOUSTON EXEC  FOG       59  59 100 SW12      29.82R VSB 1/2
*CLEVELAND MUN CLOUDY    61  60  96 CALM      29.80S FOG
*WHARTON       CLOUDY    61  61  98 W5        29.84R FOG
*COLUMBUS      FOG       58  56  94 S8        29.82R VSB 1/4
*EAGLE LAKE    FOG       61  61 100 SW9       29.81R VSB 1/4
$$

TXZ214>216-236>238-201500-
THE UPPER TEXAS COAST

CITY           SKY/WX    TMP DP  RH WIND       PRES   REMARKS
*ORANGE        CLOUDY   N/A N/A N/A SW3       29.82R HAZE
PORT ARTHUR    FOG       64  63  96 SW5       29.80R VSB 3/4
GALVESTON      FOG       62  62 100 S5        29.81R VSB 1/2
ANGLETON       PTCLDY    59  59 100 S3        29.80S FOG
*BAY CITY      MOCLDY    62  62 100 CALM      29.82R FOG
PALACIOS       MOCLDY    65  64  97 CALM      29.80R FOG
$$

TXZ229>234-239>247-201500-
TEXAS COASTAL BEND AND RIO GRANDE PLAINS

CITY           SKY/WX    TMP DP  RH WIND       PRES   REMARKS
VICTORIA       FOG       61  59  93 NW6       29.83R VSB 1
*BEEVILLE      CLOUDY    54  54 100 N5        29.80S FOG
ROCKPORT       CLOUDY    65  63  93 N3        29.80R FOG
*PORT ARANSAS  CLOUDY    64  63  97 N5        29.78S FOG
*PORT LAVACA   CLOUDY    62  62 100 CALM      29.82R FOG
*INGLESIDE     PTCLDY    64  63  96 NE6       29.79R FOG
CORPUS CHRISTI FOG       64  64 100 NE5       29.78S VSB 3/4
CORPUS NAS     CLOUDY    65  65 100 NE7       29.78R FOG
*ROBSTOWN      FOG       64  64 100 NE5       29.77F VSB 1/4
ALICE          FOG       62  62 100 NE8       29.76F VSB 1/2
KINGSVILLE NAS FOG       64  64 100 NE8       29.76F VSB 1/16
COTULLA        FOG       56  54  93 E6        29.78S VSB 1/4
*FAITH RANCH   PTCLDY    48  46  93 W5        29.78R WCI  46
LAREDO         LGT RAIN  60  59  96 NW6       29.81R VSB 1/4
$$

TXZ248>255-201500-
DEEP SOUTH TEXAS

CITY           SKY/WX    TMP DP  RH WIND       PRES   REMARKS
BROWNSVILLE    FOG       70  69  97 E6        29.76S VSB 1
PORT ISABEL    FOG       68  68 100 E8        29.75S VSB 1/4
*SOUTH PADRE   NOT AVBL
HARLINGEN      FOG       68  68 100 E10       29.74S VSB 1/4
*HEBBRONVILLE  FOG       63  63  98 CALM      29.77R VSB 1/2
MCALLEN        CLOUDY    72  68  87 E8        29.73S FOG
*WESLACO       FOG       67  67  98 E5        29.74R VSB 1
FALFURRIAS     CLOUDY    64  64  97 NE5       29.75S
EDINBURG       CLOUDY    68  66  94 E6        29.74S FOG
*ZAPATA        FOG       64  64 100 CALM      29.76R VSB 3/4
$$

TXZ213>215-236>238-242>244-246-247-251-254-255-201500-
CMAN STATIONS

STATION/POSITION TIME  TEMP    WIND        PRES    WAVE
                       AIR SEA DIR/SP/G            HT/PER
                 (UTC) (F)     (DEG/KT/KT) (MB)    (FT/S)
SABINE PASS      1348   62 66  240/  2/  4 1010.6
SEA RIM ST PARK  1300   61     250/  4/  5 1009.5
NORTH JETTY/GLS  1336   63 63  190/  3/  4   N/A
EAGLE POINT      1336   62 66  240/  3/  4 1008.8
MORGANS POINT    1348   62 64  280/  5/  5 1009.3
PORT O`CONNOR    1342   65     230/  5/  6 1009.0
PORT ARANSAS     1300   63 64   60/  3/  3 1007.9
MALAQUITE BEACH  1342   64 64   40/  6/  7 1008.7
BAFFIN BAY       1342   65 67   80/  6/  8 1007.9
PORT ISABEL      1342   67 68  360/  2/  3 1008.0
$$

GMZ080-GMZ150>470-201500-
OFFSHORE BUOY REPORTS

STATION/POSITION TIME  TEMP    WIND        PRES    WAVE
                       AIR SEA DIR/SP/G            HT/PER
                 (UTC) (F)     (DEG/KT/KT) (MB)    (FT/S)
20 E GALVESTON   1250   65 66  220/  6/  8 1008.5    2/ 6
90 E PT ARANSAS  1250   73 73  170/  2/  4 1008.2    2/ 6
35 NE PT MANSFLD 1250   70      80/  4/  6 1006.9    3/ 6
200 E PT ISABEL  1250   75 74  170/  8/ 10 1009.0    4/ 7
$$




USA.gov is the U.S. government's official web portal to all federal, state and local government web resources and services.